[TLELIST] Archives

 

[TLELIST] Current TLEs

April 20th 2025 PST

HST 1 20580U 90037B 25110.12898456 .00010160 00000-0 39258-3 0 9994 2 20580 28.4676 78.2549 0002049 167.9886 192.0757 15.24538580724077 ISS (ZARYA) 1 25544U 98067A 25110.16128250 .00020673 00000-0 37255-3 0 9997 2 25544 51.6357 234.4401 0005344 57.5764 302.5741 15.49736990506160 CXO 1 25867U 99040B 25111.25672861 .00001023 00000-0 00000+0 0 9992 2 25867 48.2098 132.5741 8508591 308.4643 0.0367 0.37803149 26883 ...Continue Reading

[TLELIST] Current TLEs

April 19th 2025 PST

HST 1 20580U 90037B 25108.16509784 .00008664 00000-0 33399-3 0 9994 2 20580 28.4670 91.5512 0002138 148.0613 212.0111 15.24500810723774 ISS (ZARYA) 1 25544U 98067A 25109.19400237 .00016425 00000-0 29822-3 0 9997 2 25544 51.6363 239.2305 0005385 54.5570 305.5921 15.49697821506016 CXO 1 25867U 99040B 25111.25672861 .00001023 00000-0 00000+0 0 9992 2 25867 48.2098 132.5741 8508591 308.4643 0.0367 0.37803149 26883 ...Continue Reading

[TLELIST] Current TLEs

April 18th 2025 PST

HST 1 20580U 90037B 25108.16509784 .00008664 00000-0 33399-3 0 9994 2 20580 28.4670 91.5512 0002138 148.0613 212.0111 15.24500810723774 ISS (ZARYA) 1 25544U 98067A 25108.16196759 .00021659 00000-0 39076-3 0 9991 2 25544 51.6381 244.3378 0005375 52.1060 306.6862 15.49672979505843 CXO 1 25867U 99040B 25108.61304746 .00000973 00000-0 00000-0 0 9996 2 25867 48.1491 132.6945 8512217 308.4397 0.0724 0.37804094 15719 ...Continue Reading

[TLELIST] Current TLEs

April 18th 2025 PST

HST 1 20580U 90037B 25108.16509784 .00008664 00000-0 33399-3 0 9994 2 20580 28.4670 91.5512 0002138 148.0613 212.0111 15.24500810723774 ISS (ZARYA) 1 25544U 98067A 25108.16196759 .00021659 00000-0 39076-3 0 9991 2 25544 51.6381 244.3378 0005375 52.1060 306.6862 15.49672979505843 CXO 1 25867U 99040B 25108.61304746 .00000973 00000-0 00000-0 0 9996 2 25867 48.1491 132.6945 8512217 308.4397 0.0724 0.37804094 15719 ...Continue Reading

[TLELIST] Current TLEs

April 17th 2025 PST

HST 1 20580U 90037B 25106.65942011 .00010154 00000-0 39313-3 0 9999 2 20580 28.4667 101.7441 0002207 134.7568 225.3206 15.24471247723282 ISS (ZARYA) 1 25544U 98067A 25107.19488923 .00019745 00000-0 35760-3 0 9999 2 25544 51.6366 249.1302 0005231 48.5635 311.5802 15.49628767505704 CXO 1 25867U 99040B 25108.61304746 .00000973 00000-0 00000-0 0 9996 2 25867 48.1491 132.6945 8512217 308.4397 0.0724 0.37804094 15719 ...Continue Reading

[TLELIST] Current TLEs

April 17th 2025 PST

HST 1 20580U 90037B 25106.65942011 .00010154 00000-0 39313-3 0 9999 2 20580 28.4667 101.7441 0002207 134.7568 225.3206 15.24471247723282 ISS (ZARYA) 1 25544U 98067A 25107.19488923 .00019745 00000-0 35760-3 0 9999 2 25544 51.6366 249.1302 0005231 48.5635 311.5802 15.49628767505704 CXO 1 25867U 99040B 25108.61304746 .00000973 00000-0 00000-0 0 9996 2 25867 48.1491 132.6945 8512217 308.4397 0.0724 0.37804094 15719 ...Continue Reading

[TLELIST] Current TLEs

April 17th 2025 PST

HST 1 20580U 90037B 25106.65942011 .00010154 00000-0 39313-3 0 9999 2 20580 28.4667 101.7441 0002207 134.7568 225.3206 15.24471247723282 ISS (ZARYA) 1 25544U 98067A 25107.19488923 .00019745 00000-0 35760-3 0 9999 2 25544 51.6366 249.1302 0005231 48.5635 311.5802 15.49628767505704 CXO 1 25867U 99040B 25108.61304746 .00000973 00000-0 00000-0 0 9996 2 25867 48.1491 132.6945 8512217 308.4397 0.0724 0.37804094 15719 ...Continue Reading

[TLELIST] Current TLEs

April 17th 2025 PST

HST 1 20580U 90037B 25106.65942011 .00010154 00000-0 39313-3 0 9999 2 20580 28.4667 101.7441 0002207 134.7568 225.3206 15.24471247723282 ISS (ZARYA) 1 25544U 98067A 25107.19488923 .00019745 00000-0 35760-3 0 9999 2 25544 51.6366 249.1302 0005231 48.5635 311.5802 15.49628767505704 CXO 1 25867U 99040B 25108.61304746 .00000973 00000-0 00000-0 0 9996 2 25867 48.1491 132.6945 8512217 308.4397 0.0724 0.37804094 15719 ...Continue Reading

[TLELIST] Current TLEs

April 16th 2025 PST

HST 1 20580U 90037B 25105.28464328 .00009419 00000-0 36439-3 0 9995 2 20580 28.4666 111.0506 0002268 121.3580 238.7237 15.24445431723075 ISS (ZARYA) 1 25544U 98067A 25105.90508772 .00016104 00000-0 29378-3 0 9995 2 25544 51.6364 255.5165 0005235 44.4016 315.7392 15.49579705505507 CXO 1 25867U 99040B 25108.61304746 .00000973 00000-0 00000-0 0 9996 2 25867 48.1491 132.6945 8512217 308.4397 0.0724 0.37804094 15719 ...Continue Reading

[TLELIST] Current TLEs

April 16th 2025 PST

HST 1 20580U 90037B 25105.28464328 .00009419 00000-0 36439-3 0 9995 2 20580 28.4666 111.0506 0002268 121.3580 238.7237 15.24445431723075 ISS (ZARYA) 1 25544U 98067A 25105.90508772 .00016104 00000-0 29378-3 0 9995 2 25544 51.6364 255.5165 0005235 44.4016 315.7392 15.49579705505507 CXO 1 25867U 99040B 25108.61304746 .00000973 00000-0 00000-0 0 9996 2 25867 48.1491 132.6945 8512217 308.4397 0.0724 0.37804094 15719 ...Continue Reading
  • This mailing list is a public mailing list - anyone may join or leave, at any time.
  • This mailing list is announce-only.

International Space Station (ISS) / Hubble Space Telescope (HST) / Chandra X-Ray Observatory Orbital Data via EMAIL

Privacy Policy:

Private list